Location: Molino di Ancona
(43.6167°N, 13.3667°E)
Time: 05:05:33
(UTC+00:00)

Cosmos 389 Rocket - Pass Details

Date: 15 December 2019
Orbit: 443 x 478 km, 81.1° (Epoch: 21 January)

Event Time Altitude Azimuth Distance (km) Brightness Sun altitude
Rises 05:35:51 0° 358° (N) 2,486 5.9 -9.9°
Reaches altitude 10° 05:38:06 10° 9° (N) 1,600 5.1 -9.6°
Maximum altitude 05:41:16 32° 74° (ENE) 801 4.2 -9.0°
Drops below altitude 10° 05:44:23 10° 140° (SE) 1,572 6.3 -8.5°
Sets 05:46:35 0° 150° (SSE) 2,433 7.1 -8.2°
